Погода в Городнице

Украина / Житомирская область     50˚48′34″N   27˚19′06″E
темп.,
°C
ветер,
м/с
пор.,
м/с
влажн.,
%
обл.,
%
осадки,
мм/ч
давл.,
гПа
погр.,
м
5 декабря, сб
сб523:00+5˚юв71486100 0.0 1020748
02:00+5˚юв71385100 0.0 1021697
05:00+5˚юв71486100 0.0 1020684
08:00+5˚юв71386100 0.0 1022667
11:00+5˚юв71384100 0.0 1023798
14:00+5˚юв71381100 0.0 1024698
17:00+4˚юв71284100 0.0 1024696
20:00+3˚юв71186100 0.0 1025682
6 декабря, вс
вс623:00+3˚юв71186100 0.0 1026662
02:00+1˚юв61182100 0.0 1027593
05:00юв6138489 0.0 1027554
08:00−1˚юв6138350 0.0 1029544
11:00+1˚юв713650 0.0 1029644
14:00+3˚юв713600 0.0 1028718
17:00−1˚вюв714530 0.0 1028521
20:00−2˚вюв715560 0.0 1029543
7 декабря, пн
пн723:00−3˚юв715550 0.0 1029570
02:00−3˚юв714570 0.0 1029578
05:00−4˚юв714620 0.0 1028575
08:00−5˚вюв715590 0.0 1028553
11:00−3˚вюв713520 0.0 1027621
14:00−2˚вюв714580 0.0 1026699
17:00−4˚вюв7147139 0.0 1026731
20:00−4˚вюв7157665 0.0 1026681
8 декабря, вт
вт823:00−4˚вюв7147493 0.0 1025621
02:00−3˚вюв8156552 0.0 1023636
05:00−4˚вюв7156412 0.0 1023569
08:00−5˚вюв714649 0.0 1024592
11:00−3˚вюв7136074 0.0 1024612
14:00−2˚вюв6116087 0.0 1023639
17:00−3˚вюв6136455 0.0 1023582
20:00−3˚вюв6126673 0.0 1024554
9 декабря, ср
ср923:00−2˚вюв61173100 0.1 1023537
02:00−2˚вюв61181100 0.1 1023527
05:00−2˚вюв61180100 0.1 1022517
08:00−2˚вюв61172100 0.1 1022510
11:00−1˚вюв6117184 0.0 1023490
14:00−2˚вюв7127292 0.0 1021476
17:00−2˚вюв71380100 0.0 1021479
20:00−1˚вюв71382100 0.1 1020518